Location: Coll
(42.4728°N, 0.7714°E)
Time: 12:09:11
(UTC+00:00)

BREEZE-M DEB (TANK) - Pass Details

Date: 23 October 2020
Orbit: 313 x 13935 km, 49.6° (Epoch: 30 November)

Event Time Altitude Azimuth Distance (km) Brightness Sun altitude
Exits shadow 04:33:54 32° 298° (WNW) 1,475 4.5 -20.2°
Maximum altitude 04:36:31 88° 211° (SSW) 1,249 4.5 -19.7°
Drops below altitude 10° 04:54:03 10° 124° (SE) 7,652 9.4 -16.4°
Sets 05:05:09 0° 126° (SE) 11,095 10.4 -14.4°
